Погода в Матавле

Россия / Республика Башкортостан     56°04′14″N   57°34′45″E
темп.,
°C
ветер,
м/с
пор.,
м/с
влажн.,
%
обл.,
%
осадки,
мм/ч
давл.,
гПа
погр.,
м
10 августа, ср
ср1023:00+20сз1180100 0.0 101811
02:00+17вюв1188100 0.0 101811
05:00+16юв118589 0.0 101811
08:00+19вюв1274100 0.0 1019112
11:00+25юв225290 0.0 1019732
14:00+28юв22387 0.0 10182331
17:00+28ююв233721 0.0 10172198
20:00+22ю2368100 0.0 101766
11 августа, чт
чт1123:00+17з1194100 2.1 101911
02:00+17ююз119597 0.3 101816
05:00+16юз23976 0.3 101764
08:00+17зюз289399 0.0 1018281
11:00+21з3573100 0.2 1018792
14:00+21зсз458394 1.1 1018971
17:00+22сз564899 1.7 10191221
20:00+17сз486467 0.0 1019551
12 августа, пт
пт1223:00+11сз11861 0.0 102117
02:00+9зюз11950 0.0 102210
05:00+9зюз11961 0.0 102212
08:00+13з267699 0.0 1022236
11:00+18з475498 0.0 1022975
14:00+21з574351 0.0 10202103
17:00+20з4851100 0.0 10191595
20:00+17зюз377046 0.0 1018245
13 августа, сб
сб1323:00+14зюз2781100 0.0 1019159
02:00+12зюз29865 0.0 1019186
05:00+11зюз210905 0.0 1019219
08:00+15зюз410775 0.0 1018355
11:00+18з4970100 0.0 1018712
14:00+23зсз584845 0.1 10172112
17:00+20сз3857100 0.1 1018606
20:00+18сз22716 0.0 101830
14 августа, вс
вс1423:00+13с11794 0.0 102011
02:00+11с11780 0.0 102111
05:00+9с11810 0.0 102210
08:00+13с12630 0.0 1023136
11:00+18с24390 0.0 10231487
14:00+21ссз24340 0.0 10221922
17:00+20ссз34375 0.0 10221730
20:00+15ссз11675 0.0 102211